sat.trackr.live / text

‹ back to catalog

STARLINK-36102

NORAD 66849 · 2025-281B

PAYLOAD ACTIVE UNKNOWN

§ Identity

Operator
Country
US
Launch date
2025-12-02
Launch site
AFETR
Launch vehicle
Mass (kg)
RCS (m²)

Purposes: comms

External: N2YO · Heavens-Above · Gunter

§ Orbital elements

Epoch: 2026-09-20T14:37:36.157728Z

Period
94.27 min
Inclination
43.0021°
Eccentricity
0.0000977
Mean motion
15.27581943 rev/d
Perigee alt
482.4 km
Apogee alt
483.7 km
Semi-major
6,861.2 km
B*
2.8854e-4
RAAN
322.8751°
Arg perigee
258.4466°
Mean anomaly
101.6276°
Rev number
4,599

§ Raw data

STARLINK-361021 66849U 25281B   26263.60944627  .00007687  00000+0  28854-3 0  99952 66849  43.0021 322.8751 0000977 258.4466 101.6276 15.27581943 45996

JSON: /api/v1/satellites/66849 · /tle

For live sub-satellite position, see the globe view (requires WebGL).

§ Visibility from observer

Set your observer location to see the next 7 days of passes ≥ 10°. The values pass through the URL so the page stays shareable.

No JS? Fill the form by hand. The geolocation button needs JavaScript.